Location: *
(35.2348°S, 91.3916°E)
Time: 07:57:41
(UTC+00:00)

Cosmos 1867 - Pass Details

Date: 23 October 2019
Orbit: 776 x 800 km, 65.0° (Epoch: 21 November)

Event Time Altitude Azimuth Distance (km) Brightness Sun altitude
Rises 13:43:21 0° 212° (SSW) 3,288 7.9 -17.4°
Reaches altitude 10° 13:45:47 10° 214° (SW) 2,355 7.0 -17.9°
Maximum altitude 13:51:10 68° 296° (WNW) 847 3.8 -18.8°
Enters shadow 13:54:22 24° 13° (NNE) 1,564 4.7 -19.4°
